Regional Weather Roundup
Issued by NWS

Home | Current Version | Previous Version | Text Only | Print | Product List | Glossary On
Versions: 1 2 3 4 5 6 7 8 9 10 11 12 13 14 15 16 17 18 19 20 21 22 23 24 25 26 27 28 29 30 31 32 33 34 35 36 37 38 39 40 41 42 43 44 45 46 47 48 49 50
000
ASUS45 KABQ 271010
RWRNM
NEW MEXICO REGIONAL WEATHER ROUNDUP
NATIONAL WEATHER SERVICE ALBUQUERQUE NM
400 AM MDT SAT MAY 27 2017

NOTE: "FAIR" MEANS FEW OR NO CLOUDS BELOW 12,000 FEET AGL WITH NO
       SIGNIFICANT WEATHER OR OBSTRUCTIONS TO VISION.

      THIS PRODUCT IS RELEASED AS TWO VERSIONS.  ONE VERSION NEAR
      THE TOP OF THE HOUR CONTAINING PRELIMINARY DATA FROM ALBUQUERQUE
      AND OTHER STATIONS.  A FINAL VERSION WITH ADDITIONAL DATA IS
      ISSUED ABOUT 10 MINUTES AFTER THE HOUR.

NMZ501-503-504-510>518-271100-
NORTHWEST PLATEAU/NORTHCENTRAL MOUNTAINS

CITY           SKY/WX    TMP DP  RH WIND       PRES   REMARKS
FARMINGTON     FAIR      55  19  24 W7        30.01R
LOS ALAMOS     FAIR      58   8  13 CALM      30.13S
SANTA FE       FAIR      45  14  28 NW7       30.08S
TAOS           FAIR      37   9  30 E7        30.12S WCI  32
ANGEL FIRE     FAIR      41  15  35 CALM      30.15S

$$
NMZ402-403-502-505>509-271100-
WESTCENTRAL MOUNTAINS/SOUTHWEST MOUNTAINS

CITY           SKY/WX    TMP DP  RH WIND       PRES   REMARKS
GALLUP         FAIR      44  16  32 CALM      30.13S
GRANTS         FAIR      45  10  24 NW13G20   30.14S
SILVER CITY    FAIR      54  20  26 NW10      30.09F

$$
NMZ407-409-411-412-271100-
SOUTHERN DESERTS

CITY           SKY/WX    TMP DP  RH WIND       PRES   REMARKS
DEMING         FAIR      66  27  23 W12       30.03F
LAS CRUCES     FAIR      69  27  20 W12       30.04S
HOLLOMAN AFB   FAIR      64  23  21 S10       30.02F
ALAMOGORDO     FAIR      61  23  23 SE10      30.01S
T OR C         FAIR      62  14  15 NW9       30.02R

$$
NMZ519>523-271100-
CENTRAL VALLEYS/CENTRAL HIGHLANDS

CITY           SKY/WX    TMP DP  RH WIND       PRES   REMARKS
ALBUQUERQUE    FAIR      56   9  15 S3        30.06R
DOUBLE EAGLE   FAIR      44  14  29 CALM      30.08S
MORIARTY ARPT  FAIR      56  13  18 W9        30.10R
CLINES CORNERS FAIR      46  11  24 NW16      30.10F
BELEN          FAIR      50  12  21 CALM      30.06R
SOCORRO        FAIR      55  15  20 W5        30.03R

$$
NMZ524>526-539-540-271100-
SOUTHCENTRAL MOUNTAINS

CITY           SKY/WX    TMP DP  RH WIND       PRES   REMARKS
RUIDOSO        FAIR      59  14  17 SE3       30.12S

$$
NMZ527>531-271100-
NORTHEAST HIGHLANDS/NORTHEAST PLAINS

CITY           SKY/WX    TMP DP  RH WIND       PRES   REMARKS
LAS VEGAS      FAIR      53   9  17 W9        30.05S
RATON          FAIR      50  17  27 SW3       29.99R
CLAYTON        FAIR      56  26  31 W13       29.88S

$$
NMZ532>537-271100-
EASTCENTRAL PLAINS

CITY           SKY/WX    TMP DP  RH WIND       PRES   REMARKS
SANTA ROSA     FAIR      58  16  19 SW7       29.96R
TUCUMCARI      FAIR      59  25  27 S7        29.86R
CANNON AFB     FAIR      63  25  24 W9        29.94R
CLOVIS AIRPORT FAIR      64  25  22 W13       29.92R

$$
NMZ028-029-538-271100-
SOUTHEAST PLAINS

CITY           SKY/WX    TMP DP  RH WIND       PRES   REMARKS
ROSWELL        FAIR      65  26  23 CALM      29.89S
ARTESIA        FAIR      64  27  24 W12       29.92R
CARLSBAD       FAIR      72  29  20 SW9       29.90R
HOBBS          FAIR      70  27  19 S6        29.92S


$$



USA.gov is the U.S. government's official web portal to all federal, state and local government web resources and services.